| time (UTC) | temp C | wind direction | speed KPH | gust KPH | rain 1hr cm | rain 24hr cm | rain mn cm | humidity % | barometer mb |
| 20260510205009 | 17 | 131 | 0.0 | 16.1 | 0.00 | 0.00 | 0.00 | 37 | 1018.3 |
| 20260510204507 | 19 | 145 | 6.4 | 6.4 | 0.00 | 0.00 | 0.00 | 35 | 1018.3 |
| 20260510204003 | 18 | 57 | 3.2 | 6.4 | 0.00 | 0.00 | 0.00 | 38 | 1018.4 |
| 20260510203500 | 17 | 61 | 4.8 | 11.3 | 0.00 | 0.00 | 0.00 | 37 | 1018.5 |
| 20260510202955 | 17 | 86 | 4.8 | 17.7 | 0.00 | 0.00 | 0.00 | 35 | 1018.3 |
| 20260510202450 | 18 | 95 | 3.2 | 8.0 | 0.00 | 0.00 | 0.00 | 35 | 1018.5 |
| 20260510201947 | 18 | 81 | 1.6 | 8.0 | 0.00 | 0.00 | 0.00 | 41 | 1018.4 |
| 20260510201445 | 18 | 110 | 3.2 | 9.7 | 0.00 | 0.00 | 0.00 | 39 | 1018.7 |
| 20260510200941 | 18 | 136 | 6.4 | 9.7 | 0.00 | 0.00 | 0.00 | 36 | 1018.5 |
| 20260510200436 | 17 | 137 | 6.4 | 12.9 | 0.00 | 0.00 | 0.00 | 34 | 1018.6 |
| 20260510195929 | 18 | 79 | 0.0 | 6.4 | 0.00 | 0.00 | 0.00 | 41 | 1018.6 |
| 20260510195427 | 17 | 95 | 3.2 | 14.5 | 0.00 | 0.00 | 0.00 | 39 | 1018.7 |
| 20260510194922 | 17 | 128 | 3.2 | 9.7 | 0.00 | 0.00 | 0.00 | 36 | 1018.8 |
| 20260510194418 | 17 | 126 | 4.8 | 9.7 | 0.00 | 0.00 | 0.00 | 38 | 1018.8 |
| 20260510193914 | 17 | 133 | 3.2 | 11.3 | 0.00 | 0.00 | 0.00 | 37 | 1018.6 |
| 20260510193409 | 17 | 135 | 3.2 | 8.0 | 0.00 | 0.00 | 0.00 | 39 | 1018.8 |
| 20260510192905 | 17 | 106 | 6.4 | 17.7 | 0.00 | 0.00 | 0.00 | 39 | 1018.7 |
| 20260510192400 | 18 | 113 | 9.7 | 9.7 | 0.00 | 0.00 | 0.00 | 38 | 1018.8 |
| 20260510191856 | 18 | 118 | 8.0 | 9.7 | 0.00 | 0.00 | 0.00 | 37 | 1018.7 |
| 20260510191353 | 17 | 118 | 4.8 | 11.3 | 0.00 | 0.00 | 0.00 | 39 | 1018.7 |
| 20260510190850 | 17 | 117 | 6.4 | 9.7 | 0.00 | 0.00 | 0.00 | 41 | 1018.8 |
| 20260510190348 | 17 | 93 | 3.2 | 9.7 | 0.00 | 0.00 | 0.00 | 42 | 1018.9 |
| 20260510185844 | 17 | 132 | 3.2 | 8.0 | 0.00 | 0.00 | 0.00 | 39 | 1018.6 |
| 20260510185342 | 17 | 114 | 1.6 | 6.4 | 0.00 | 0.00 | 0.00 | 39 | 1018.7 |
| 20260510184839 | 17 | 93 | 4.8 | 19.3 | 0.00 | 0.00 | 0.00 | 36 | 1018.7 |
| 20260510184336 | 17 | 188 | 3.2 | 11.3 | 0.00 | 0.00 | 0.00 | 38 | 1018.7 |
| 20260510183835 | 17 | 100 | 6.4 | 9.7 | 0.00 | 0.00 | 0.00 | 40 | 1018.5 |
| 20260510183331 | 17 | 121 | 4.8 | 9.7 | 0.00 | 0.00 | 0.00 | 36 | 1018.7 |
| 20260510182827 | 17 | 70 | 3.2 | 6.4 | 0.00 | 0.00 | 0.00 | 36 | 1018.3 |
| 20260510182324 | 16 | 157 | 3.2 | 16.1 | 0.00 | 0.00 | 0.00 | 34 | 1018.3 |
| 20260510181820 | 17 | 100 | 9.7 | 9.7 | 0.00 | 0.00 | 0.00 | 44 | 1018.2 |
| 20260510181318 | 17 | 152 | 9.7 | 14.5 | 0.00 | 0.00 | 0.00 | 33 | 1018.2 |
| 20260510180813 | 17 | 20 | 0.0 | 17.7 | 0.00 | 0.00 | 0.00 | 40 | 1018.0 |
| 20260510180311 | 17 | 107 | 4.8 | 8.0 | 0.00 | 0.00 | 0.00 | 37 | 1018.1 |
| 20260510175807 | 17 | 60 | 4.8 | 11.3 | 0.00 | 0.00 | 0.00 | 42 | 1018.0 |
| 20260510175306 | 16 | 105 | 3.2 | 9.7 | 0.00 | 0.00 | 0.00 | 38 | 1018.2 |
| 20260510174800 | 16 | 60 | 6.4 | 20.9 | 0.00 | 0.00 | 0.00 | 37 | 1018.1 |
| 20260510174257 | 17 | 102 | 3.2 | 14.5 | 0.00 | 0.00 | 0.00 | 35 | 1018.1 |
| 20260510173753 | 17 | 104 | 3.2 | 11.3 | 0.00 | 0.00 | 0.00 | 37 | 1018.1 |
| 20260510173249 | 17 | 104 | 3.2 | 9.7 | 0.00 | 0.00 | 0.00 | 38 | 1018.2 |
| 20260510172745 | 18 | 139 | 16.1 | 17.7 | 0.00 | 0.00 | 0.00 | 34 | 1018.2 |
| 20260510172241 | 17 | 114 | 6.4 | 9.7 | 0.00 | 0.00 | 0.00 | 39 | 1018.0 |
| 20260510171738 | 17 | 112 | 4.8 | 12.9 | 0.00 | 0.00 | 0.00 | 39 | 1018.2 |
| 20260510171235 | 17 | 103 | 3.2 | 14.5 | 0.00 | 0.00 | 0.00 | 37 | 1018.2 |
| 20260510170732 | 17 | 127 | 11.3 | 17.7 | 0.00 | 0.00 | 0.00 | 31 | 1018.0 |
| 20260510170228 | 17 | 209 | 1.6 | 4.8 | 0.00 | 0.00 | 0.00 | 40 | 1018.0 |
| 20260510165724 | 17 | 136 | 6.4 | 14.5 | 0.00 | 0.00 | 0.00 | 32 | 1018.1 |
| 20260510165220 | 17 | 120 | 3.2 | 6.4 | 0.00 | 0.00 | 0.00 | 37 | 1018.0 |
| 20260510164718 | 17 | 129 | 8.0 | 12.9 | 0.00 | 0.00 | 0.00 | 29 | 1018.1 |
| 20260510164215 | 17 | 108 | 6.4 | 11.3 | 0.00 | 0.00 | 0.00 | 33 | 1018.0 |
| 20260510163710 | 17 | 0 | 3.2 | 9.7 | 0.00 | 0.00 | 0.00 | 38 | 1017.9 |
| 20260510163206 | 16 | 34 | 4.8 | 9.7 | 0.00 | 0.00 | 0.00 | 43 | 1018.0 |
| 20260510162706 | 17 | 106 | 1.6 | 12.9 | 0.00 | 0.00 | 0.00 | 42 | 1017.9 |
| 20260510162203 | 17 | 301 | 3.2 | 4.8 | 0.00 | 0.00 | 0.00 | 40 | 1017.9 |
| 20260510161659 | 17 | 38 | 4.8 | 4.8 | 0.00 | 0.00 | 0.00 | 50 | 1017.9 |
| 20260510161155 | 17 | 95 | 9.7 | 9.7 | 0.00 | 0.00 | 0.00 | 44 | 1017.8 |
| 20260510160652 | 17 | 146 | 8.0 | 8.0 | 0.00 | 0.00 | 0.00 | 39 | 1017.6 |
| 20260510160148 | 16 | 100 | 9.7 | 9.7 | 0.00 | 0.00 | 0.00 | 42 | 1017.9 |
| 20260510155644 | 16 | 66 | 4.8 | 14.5 | 0.00 | 0.00 | 0.00 | 47 | 1017.8 |
| 20260510155140 | 16 | 86 | 4.8 | 8.0 | 0.00 | 0.00 | 0.00 | 45 | 1017.5 |
| 20260510154635 | 16 | 79 | 4.8 | 12.9 | 0.00 | 0.00 | 0.00 | 48 | 1017.5 |
| 20260510154131 | 17 | 109 | 6.4 | 8.0 | 0.00 | 0.00 | 0.00 | 41 | 1017.4 |
| 20260510153627 | 17 | 100 | 1.6 | 4.8 | 0.00 | 0.00 | 0.00 | 47 | 1017.3 |
| 20260510153124 | 16 | 98 | 3.2 | 8.0 | 0.00 | 0.00 | 0.00 | 41 | 1017.3 |
| 20260510152620 | 14 | 172 | 4.8 | 14.5 | 0.00 | 0.00 | 0.00 | 43 | 1017.3 |
| 20260510152116 | 16 | 93 | 3.2 | 9.7 | 0.00 | 0.00 | 0.00 | 44 | 1017.5 |
| 20260510151613 | 16 | 116 | 8.0 | 11.3 | 0.00 | 0.00 | 0.00 | 42 | 1017.6 |
| 20260510151112 | 15 | 135 | 4.8 | 9.7 | 0.00 | 0.00 | 0.00 | 41 | 1017.5 |
| 20260510150611 | 15 | 148 | 3.2 | 8.0 | 0.00 | 0.00 | 0.00 | 46 | 1017.3 |
| 20260510150107 | 15 | 78 | 6.4 | 9.7 | 0.00 | 0.00 | 0.00 | 46 | 1017.3 |
| 20260510145604 | 14 | 85 | 4.8 | 16.1 | 0.00 | 0.00 | 0.00 | 45 | 1017.3 |
| 20260510145101 | 14 | 143 | 6.4 | 14.5 | 0.00 | 0.00 | 0.00 | 44 | 1017.4 |
| 20260510144557 | 14 | 80 | 4.8 | 9.7 | 0.00 | 0.00 | 0.00 | 47 | 1017.3 |
| 20260510144053 | 14 | 116 | 4.8 | 14.5 | 0.00 | 0.00 | 0.00 | 47 | 1017.1 |
| 20260510143548 | 13 | 157 | 6.4 | 20.9 | 0.00 | 0.00 | 0.00 | 45 | 1017.1 |
| 20260510143045 | 13 | 116 | 4.8 | 16.1 | 0.00 | 0.00 | 0.00 | 45 | 1017.0 |
| 20260510142542 | 13 | 118 | 8.0 | 20.9 | 0.00 | 0.00 | 0.00 | 46 | 1016.9 |
| 20260510142039 | 13 | 155 | 4.8 | 14.5 | 0.00 | 0.00 | 0.00 | 47 | 1016.9 |
| 20260510141535 | 13 | 114 | 4.8 | 17.7 | 0.00 | 0.00 | 0.00 | 50 | 1016.8 |
| 20260510141033 | 13 | 88 | 1.6 | 12.9 | 0.00 | 0.00 | 0.00 | 50 | 1016.9 |
| 20260510140529 | 13 | 139 | 3.2 | 12.9 | 0.00 | 0.00 | 0.00 | 46 | 1017.1 |
| 20260510140029 | 13 | 105 | 3.2 | 8.0 | 0.00 | 0.00 | 0.00 | 48 | 1017.3 |
| 20260510135524 | 12 | 304 | 0.0 | 9.7 | 0.00 | 0.00 | 0.00 | 50 | 1017.1 |
| 20260510135021 | 12 | 138 | 11.3 | 17.7 | 0.00 | 0.00 | 0.00 | 46 | 1017.0 |
| 20260510134518 | 12 | 146 | 4.8 | 8.0 | 0.00 | 0.00 | 0.00 | 50 | 1017.1 |
| 20260510134015 | 12 | 167 | 8.0 | 11.3 | 0.00 | 0.00 | 0.00 | 49 | 1017.0 |
| 20260510133511 | 12 | 129 | 4.8 | 9.7 | 0.00 | 0.00 | 0.00 | 53 | 1016.9 |
| 20260510133007 | 11 | 134 | 4.8 | 9.7 | 0.00 | 0.00 | 0.00 | 54 | 1017.1 |
| 20260510132504 | 11 | 117 | 9.7 | 11.3 | 0.00 | 0.00 | 0.00 | 56 | 1016.9 |
| 20260510132001 | 11 | 136 | 8.0 | 17.7 | 0.00 | 0.00 | 0.00 | 54 | 1016.8 |
| 20260510131459 | 11 | 131 | 3.2 | 17.7 | 0.00 | 0.00 | 0.00 | 55 | 1016.7 |
| 20260510130955 | 11 | 79 | 4.8 | 9.7 | 0.00 | 0.00 | 0.00 | 56 | 1016.6 |
| 20260510130452 | 11 | 102 | 4.8 | 12.9 | 0.00 | 0.00 | 0.00 | 56 | 1016.2 |
| 20260510125949 | 11 | 83 | 6.4 | 9.7 | 0.00 | 0.00 | 0.00 | 59 | 1016.2 |
| 20260510125445 | 11 | 126 | 11.3 | 14.5 | 0.00 | 0.00 | 0.00 | 58 | 1016.4 |
| 20260510124942 | 10 | 86 | 4.8 | 17.7 | 0.00 | 0.00 | 0.00 | 58 | 1016.2 |
| 20260510124438 | 11 | 161 | 6.4 | 17.7 | 0.00 | 0.00 | 0.00 | 59 | 1015.9 |
| 20260510123935 | 11 | 82 | 6.4 | 11.3 | 0.00 | 0.00 | 0.00 | 61 | 1016.0 |
| 20260510123431 | 10 | 117 | 1.6 | 11.3 | 0.00 | 0.00 | 0.00 | 62 | 1015.7 |
| 20260510122927 | 10 | 124 | 6.4 | 11.3 | 0.00 | 0.00 | 0.00 | 65 | 1015.8 |
| 20260510122427 | 10 | 139 | 8.0 | 16.1 | 0.00 | 0.00 | 0.00 | 65 | 1015.9 |
| 20260510121924 | 10 | 138 | 6.4 | 9.7 | 0.00 | 0.00 | 0.00 | 65 | 1015.9 |
| 20260510121421 | 9 | 115 | 8.0 | 16.1 | 0.00 | 0.00 | 0.00 | 66 | 1015.9 |
| 20260510120919 | 9 | 72 | 4.8 | 12.9 | 0.00 | 0.00 | 0.00 | 69 | 1015.7 |
| 20260510120416 | 9 | 141 | 9.7 | 12.9 | 0.00 | 0.00 | 0.00 | 69 | 1015.4 |
| 20260510115911 | 8 | 128 | 8.0 | 16.1 | 0.00 | 0.00 | 0.00 | 68 | 1015.4 |
| 20260510115408 | 9 | 121 | 11.3 | 11.3 | 0.00 | 0.00 | 0.00 | 70 | 1015.1 |
| 20260510114905 | 9 | 138 | 3.2 | 6.4 | 0.00 | 0.00 | 0.00 | 71 | 1015.2 |
| 20260510114402 | 9 | 165 | 4.8 | 11.3 | 0.00 | 0.00 | 0.00 | 71 | 1014.9 |
| 20260510113857 | 8 | 103 | 6.4 | 8.0 | 0.00 | 0.00 | 0.00 | 73 | 1015.1 |
| 20260510113353 | 8 | 120 | 4.8 | 8.0 | 0.00 | 0.00 | 0.00 | 75 | 1014.5 |
| 20260510112850 | 8 | 85 | 1.6 | 6.4 | 0.00 | 0.00 | 0.00 | 75 | 1014.8 |
| 20260510112347 | 8 | 99 | 1.6 | 3.2 | 0.00 | 0.00 | 0.00 | 76 | 1014.5 |
| 20260510111843 | 8 | 149 | 4.8 | 9.7 | 0.00 | 0.00 | 0.00 | 75 | 1014.5 |
| 20260510111340 | 8 | 140 | 4.8 | 6.4 | 0.00 | 0.00 | 0.00 | 76 | 1014.4 |
| 20260510110839 | 8 | 87 | 4.8 | 11.3 | 0.00 | 0.00 | 0.00 | 76 | 1014.2 |
| 20260510110337 | 8 | 135 | 1.6 | 6.4 | 0.00 | 0.00 | 0.00 | 77 | 1014.0 |
| 20260510105833 | 8 | 131 | 0.0 | 11.3 | 0.00 | 0.00 | 0.00 | 77 | 1014.0 |
| 20260510105333 | 8 | 155 | 3.2 | 8.0 | 0.00 | 0.00 | 0.00 | 78 | 1014.1 |
| 20260510104829 | 8 | 248 | 3.2 | 6.4 | 0.00 | 0.00 | 0.00 | 79 | 1014.0 |
| 20260510104326 | 8 | 128 | 1.6 | 4.8 | 0.00 | 0.00 | 0.00 | 79 | 1013.7 |
| 20260510103823 | 8 | 152 | 4.8 | 6.4 | 0.00 | 0.00 | 0.00 | 79 | 1013.5 |
| 20260510103319 | 8 | 102 | 0.0 | 6.4 | 0.00 | 0.00 | 0.00 | 80 | 1013.4 |
| 20260510102815 | 8 | 16 | 0.0 | 6.4 | 0.00 | 0.00 | 0.00 | 80 | 1013.2 |
| 20260510102311 | 8 | 68 | 3.2 | 6.4 | 0.00 | 0.00 | 0.00 | 81 | 1013.1 |
| 20260510101808 | 8 | 148 | 3.2 | 6.4 | 0.00 | 0.00 | 0.00 | 82 | 1013.0 |
| 20260510101306 | 8 | 119 | 1.6 | 4.8 | 0.00 | 0.00 | 0.00 | 83 | 1013.0 |
| 20260510100802 | 8 | 60 | 1.6 | 4.8 | 0.00 | 0.00 | 0.00 | 83 | 1012.9 |
| 20260510100300 | 8 | 130 | 1.6 | 3.2 | 0.00 | 0.00 | 0.00 | 83 | 1012.7 |
| 20260510095756 | 8 | 121 | 0.0 | 3.2 | 0.00 | 0.00 | 0.00 | 82 | 1012.7 |
| 20260510095251 | 8 | 148 | 1.6 | 4.8 | 0.00 | 0.00 | 0.00 | 82 | 1012.7 |
| 20260510094750 | 8 | 73 | 1.6 | 3.2 | 0.00 | 0.00 | 0.00 | 82 | 1012.8 |
| 20260510094246 | 8 | 76 | 1.6 | 3.2 | 0.00 | 0.00 | 0.00 | 82 | 1012.7 |
| 20260510093742 | 8 | 141 | 3.2 | 8.0 | 0.00 | 0.00 | 0.00 | 82 | 1012.7 |
| 20260510093239 | 8 | 110 | 3.2 | 3.2 | 0.00 | 0.00 | 0.00 | 84 | 1012.6 |
| 20260510092735 | 8 | 153 | 1.6 | 4.8 | 0.00 | 0.00 | 0.00 | 86 | 1012.4 |
| 20260510092231 | 8 | 110 | 1.6 | 8.0 | 0.00 | 0.00 | 0.00 | 87 | 1012.5 |
| 20260510091727 | 7 | 54 | 0.0 | 3.2 | 0.00 | 0.00 | 0.00 | 88 | 1012.3 |
| 20260510091224 | 7 | 66 | 0.0 | 3.2 | 0.00 | 0.00 | 0.00 | 89 | 1012.3 |
| 20260510090720 | 7 | 113 | 0.0 | 0.0 | 0.00 | 0.00 | 0.00 | 89 | 1012.1 |
| 20260510090218 | 7 | 126 | 0.0 | 0.0 | 0.00 | 0.00 | 0.00 | 89 | 1012.1 |
| 20260510085712 | 7 | 49 | 0.0 | 1.6 | 0.00 | 0.00 | 0.00 | 89 | 1012.0 |
| 20260510085208 | 7 | 124 | 0.0 | 0.0 | 0.00 | 0.00 | 0.00 | 89 | 1011.9 |
| 20260510084704 | 7 | 141 | 0.0 | 1.6 | 0.00 | 0.00 | 0.00 | 89 | 1011.7 |
| 20260510084201 | 7 | 66 | 0.0 | 0.0 | 0.00 | 0.00 | 0.00 | 88 | 1011.9 |
| 20260510083658 | 7 | 32 | 0.0 | 0.0 | 0.00 | 0.00 | 0.00 | 88 | 1011.6 |
| 20260510083155 | 7 | 352 | 0.0 | 0.0 | 0.00 | 0.00 | 0.00 | 88 | 1011.5 |
| 20260510082650 | 7 | 352 | 0.0 | 0.0 | 0.00 | 0.00 | 0.00 | 88 | 1011.5 |
| 20260510082146 | 7 | 32 | 0.0 | 0.0 | 0.00 | 0.00 | 0.00 | 88 | 1011.6 |
| 20260510081641 | 7 | 32 | 0.0 | 1.6 | 0.00 | 0.00 | 0.00 | 87 | 1011.4 |
| 20260510081137 | 7 | 44 | 0.0 | 0.0 | 0.00 | 0.00 | 0.00 | 86 | 1011.4 |
| 20260510080636 | 8 | 44 | 0.0 | 0.0 | 0.00 | 0.00 | 0.00 | 85 | 1011.4 |
| 20260510080133 | 8 | 44 | 0.0 | 0.0 | 0.00 | 0.00 | 0.00 | 84 | 1011.4 |
| 20260510075631 | 8 | 22 | 0.0 | 1.6 | 0.00 | 0.00 | 0.00 | 84 | 1011.3 |
| 20260510075128 | 8 | 13 | 0.0 | 1.6 | 0.00 | 0.00 | 0.00 | 83 | 1011.3 |
| 20260510074625 | 8 | 32 | 0.0 | 1.6 | 0.00 | 0.00 | 0.00 | 82 | 1011.1 |
| 20260510074120 | 8 | 35 | 0.0 | 1.6 | 0.00 | 0.00 | 0.00 | 82 | 1010.8 |
| 20260510073617 | 8 | 54 | 1.6 | 3.2 | 0.00 | 0.00 | 0.00 | 81 | 1010.7 |
| 20260510073114 | 8 | 126 | 0.0 | 1.6 | 0.00 | 0.00 | 0.00 | 80 | 1010.4 |
| 20260510072610 | 8 | 76 | 0.0 | 1.6 | 0.00 | 0.00 | 0.00 | 79 | 1010.4 |
| 20260510072107 | 8 | 34 | 0.0 | 0.0 | 0.00 | 0.00 | 0.00 | 78 | 1010.2 |
| 20260510071602 | 8 | 89 | 0.0 | 1.6 | 0.00 | 0.00 | 0.00 | 77 | 1010.5 |
| 20260510071101 | 8 | 122 | 0.0 | 1.6 | 0.00 | 0.00 | 0.00 | 76 | 1010.2 |
| 20260510070557 | 9 | 114 | 0.0 | 3.2 | 0.00 | 0.00 | 0.00 | 75 | 1010.2 |
| 20260510070054 | 9 | 110 | 1.6 | 4.8 | 0.00 | 0.00 | 0.00 | 74 | 1010.1 |
| 20260510065550 | 10 | 123 | 1.6 | 6.4 | 0.00 | 0.00 | 0.00 | 73 | 1010.2 |
| 20260510065047 | 10 | 49 | 1.6 | 6.4 | 0.00 | 0.00 | 0.00 | 73 | 1010.2 |
| 20260510064543 | 10 | 161 | 3.2 | 4.8 | 0.00 | 0.00 | 0.00 | 73 | 1010.3 |
| 20260510064040 | 10 | 63 | 0.0 | 6.4 | 0.00 | 0.00 | 0.00 | 72 | 1010.1 |
| 20260510063537 | 10 | 103 | 1.6 | 4.8 | 0.00 | 0.00 | 0.00 | 72 | 1010.1 |
| 20260510063034 | 10 | 132 | 8.0 | 8.0 | 0.00 | 0.00 | 0.00 | 71 | 1010.2 |
| 20260510062530 | 10 | 140 | 0.0 | 3.2 | 0.00 | 0.00 | 0.00 | 71 | 1010.1 |
| 20260510062025 | 10 | 150 | 0.0 | 8.0 | 0.00 | 0.00 | 0.00 | 71 | 1010.0 |
| 20260510061522 | 10 | 133 | 3.2 | 9.7 | 0.00 | 0.00 | 0.00 | 70 | 1010.1 |
| 20260510061018 | 10 | 132 | 4.8 | 11.3 | 0.00 | 0.00 | 0.00 | 70 | 1009.8 |
| 20260510060515 | 10 | 159 | 3.2 | 6.4 | 0.00 | 0.00 | 0.00 | 70 | 1009.9 |
| 20260510060011 | 11 | 141 | 3.2 | 11.3 | 0.00 | 0.00 | 0.00 | 70 | 1009.8 |
| 20260510055507 | 11 | 140 | 6.4 | 11.3 | 0.00 | 0.00 | 0.00 | 70 | 1009.5 |
| 20260510055006 | 11 | 117 | 1.6 | 9.7 | 0.00 | 0.00 | 0.00 | 71 | 1009.6 |
| 20260510054501 | 11 | 176 | 1.6 | 9.7 | 0.00 | 0.00 | 0.00 | 73 | 1009.7 |
| 20260510053956 | 11 | 142 | 8.0 | 14.5 | 0.00 | 0.00 | 0.00 | 74 | 1009.6 |
| 20260510053451 | 12 | 118 | 3.2 | 17.7 | 0.00 | 0.00 | 0.00 | 79 | 1009.4 |
| 20260510052948 | 12 | 122 | 17.7 | 17.7 | 0.00 | 0.00 | 0.00 | 86 | 1009.3 |
| 20260510052443 | 13 | 175 | 3.2 | 16.1 | 0.00 | 0.00 | 0.00 | 88 | 1009.0 |
| 20260510051940 | 12 | 102 | 0.0 | 3.2 | 0.00 | 0.00 | 0.00 | 88 | 1008.7 |
| 20260510051436 | 13 | 32 | 0.0 | 1.6 | 0.00 | 0.00 | 0.00 | 87 | 1008.6 |
| 20260510050933 | 13 | 25 | 3.2 | 3.2 | 0.00 | 0.00 | 0.00 | 85 | 1008.5 |
| 20260510050430 | 13 | 297 | 3.2 | 6.4 | 0.00 | 0.00 | 0.00 | 84 | 1008.3 |
| 20260510045927 | 13 | 296 | 3.2 | 8.0 | 0.00 | 0.00 | 0.00 | 86 | 1008.3 |
| 20260510045424 | 13 | 264 | 0.0 | 4.8 | 0.00 | 0.00 | 0.00 | 90 | 1008.2 |
| 20260510044921 | 12 | 319 | 3.2 | 4.8 | 0.00 | 0.00 | 0.00 | 90 | 1008.1 |
| 20260510044418 | 12 | 344 | 1.6 | 4.8 | 0.00 | 0.00 | 0.00 | 90 | 1008.1 |
| 20260510043915 | 13 | 345 | 3.2 | 4.8 | 0.00 | 0.00 | 0.00 | 89 | 1008.0 |
| 20260510043410 | 13 | 353 | 3.2 | 3.2 | 0.00 | 0.00 | 0.00 | 89 | 1007.9 |
| 20260510042909 | 13 | 3 | 1.6 | 3.2 | 0.00 | 0.00 | 0.00 | 88 | 1007.8 |
| 20260510042404 | 13 | 358 | 4.8 | 8.0 | 0.00 | 0.00 | 0.00 | 89 | 1007.9 |
| 20260510041900 | 13 | 346 | 4.8 | 6.4 | 0.00 | 0.00 | 0.00 | 89 | 1007.8 |
| 20260510041358 | 13 | 102 | 0.0 | 1.6 | 0.00 | 0.00 | 0.00 | 87 | 1007.4 |
| 20260510040855 | 13 | 332 | 3.2 | 4.8 | 0.00 | 0.00 | 0.00 | 87 | 1007.1 |
| 20260510040352 | 13 | 355 | 3.2 | 4.8 | 0.00 | 0.00 | 0.00 | 86 | 1007.0 |
| 20260510035847 | 13 | 23 | 3.2 | 6.4 | 0.00 | 0.51 | 0.51 | 86 | 1007.1 |
| 20260510035343 | 13 | 304 | 3.2 | 4.8 | 0.00 | 0.51 | 0.51 | 85 | 1006.8 |
| 20260510034839 | 13 | 8 | 4.8 | 6.4 | 0.00 | 0.51 | 0.51 | 84 | 1007.0 |
| 20260510034337 | 13 | 24 | 4.8 | 6.4 | 0.00 | 0.51 | 0.51 | 85 | 1007.1 |
| 20260510033833 | 13 | 35 | 3.2 | 4.8 | 0.00 | 0.51 | 0.51 | 85 | 1006.9 |
| 20260510033330 | 14 | 4 | 3.2 | 4.8 | 0.00 | 0.51 | 0.51 | 82 | 1006.8 |
| 20260510032827 | 14 | 303 | 4.8 | 6.4 | 0.00 | 0.51 | 0.51 | 81 | 1006.9 |
| 20260510032324 | 14 | 326 | 4.8 | 6.4 | 0.00 | 0.51 | 0.51 | 82 | 1006.9 |
| 20260510031819 | 14 | 7 | 6.4 | 8.0 | 0.00 | 0.51 | 0.51 | 83 | 1006.7 |
| 20260510031314 | 14 | 330 | 3.2 | 8.0 | 0.05 | 0.51 | 0.51 | 84 | 1006.9 |
| 20260510030809 | 14 | 353 | 3.2 | 8.0 | 0.00 | 0.51 | 0.51 | 84 | 1006.9 |
| 20260510030306 | 14 | 16 | 3.2 | 9.7 | 0.00 | 0.51 | 0.51 | 84 | 1007.0 |
| 20260510025803 | 14 | 296 | 6.4 | 12.9 | 0.00 | 0.51 | 0.51 | 83 | 1006.8 |
| 20260510025301 | 14 | 28 | 8.0 | 8.0 | 0.00 | 0.51 | 0.51 | 84 | 1007.0 |
| 20260510024757 | 14 | 21 | 3.2 | 6.4 | 0.00 | 0.51 | 0.51 | 83 | 1007.1 |
| 20260510024254 | 13 | 52 | 0.0 | 9.7 | 0.00 | 0.51 | 0.51 | 83 | 1006.9 |
| 20260510023750 | 13 | 9 | 4.8 | 8.0 | 0.00 | 0.51 | 0.51 | 84 | 1007.0 |
| 20260510023247 | 13 | 355 | 4.8 | 6.4 | 0.00 | 0.51 | 0.51 | 84 | 1006.8 |
| 20260510022743 | 13 | 31 | 3.2 | 4.8 | 0.00 | 0.51 | 0.51 | 84 | 1006.9 |
| 20260510022243 | 14 | 356 | 3.2 | 6.4 | 0.00 | 0.51 | 0.51 | 83 | 1006.7 |
| 20260510021743 | 14 | 356 | 4.8 | 6.4 | 0.00 | 0.51 | 0.51 | 83 | 1006.7 |
| 20260510021241 | 14 | 316 | 3.2 | 6.4 | 0.00 | 0.51 | 0.51 | 82 | 1006.7 |
| 20260510020736 | 14 | 307 | 4.8 | 9.7 | 0.00 | 0.51 | 0.51 | 82 | 1006.6 |
| 20260510020231 | 14 | 0 | 8.0 | 17.7 | 0.00 | 0.51 | 0.51 | 83 | 1007.1 |
| 20260510015727 | 13 | 359 | 8.0 | 14.5 | 0.00 | 0.51 | 0.51 | 87 | 1007.1 |
| 20260510015224 | 13 | 13 | 4.8 | 8.0 | 0.00 | 0.51 | 0.51 | 88 | 1007.1 |
| 20260510014719 | 13 | 17 | 3.2 | 4.8 | 0.00 | 0.51 | 0.51 | 89 | 1006.2 |
| 20260510014217 | 13 | 323 | 3.2 | 4.8 | 0.00 | 0.51 | 0.51 | 89 | 1006.2 |
| 20260510013712 | 13 | 331 | 1.6 | 4.8 | 0.00 | 0.51 | 0.51 | 89 | 1006.1 |
| 20260510013208 | 13 | 337 | 1.6 | 3.2 | 0.00 | 0.51 | 0.51 | 89 | 1006.1 |
| 20260510012707 | 13 | 342 | 3.2 | 3.2 | 0.00 | 0.51 | 0.51 | 89 | 1006.1 |
| 20260510012203 | 13 | 32 | 0.0 | 3.2 | 0.00 | 0.51 | 0.51 | 89 | 1006.0 |
| 20260510011658 | 13 | 64 | 3.2 | 4.8 | 0.00 | 0.51 | 0.51 | 89 | 1006.1 |
| 20260510011154 | 12 | 32 | 3.2 | 3.2 | 0.00 | 0.51 | 0.51 | 89 | 1005.9 |
| 20260510010650 | 12 | 2 | 3.2 | 3.2 | 0.00 | 0.51 | 0.51 | 88 | 1006.1 |
| 20260510010147 | 13 | 343 | 1.6 | 3.2 | 0.00 | 0.51 | 0.51 | 88 | 1006.1 |
| 20260510005643 | 13 | 337 | 3.2 | 4.8 | 0.00 | 0.51 | 0.51 | 86 | 1006.1 |
| 20260510005140 | 13 | 21 | 0.0 | 6.4 | 0.00 | 0.51 | 0.51 | 85 | 1005.9 |
| 20260510004639 | 13 | 12 | 1.6 | 6.4 | 0.00 | 0.51 | 0.51 | 84 | 1006.1 |
| 20260510004136 | 13 | 0 | 3.2 | 6.4 | 0.00 | 0.51 | 0.51 | 83 | 1006.0 |
| 20260510003633 | 14 | 348 | 6.4 | 6.4 | 0.00 | 0.51 | 0.51 | 82 | 1005.6 |
| 20260510003129 | 14 | 1 | 6.4 | 9.7 | 0.00 | 0.51 | 0.51 | 82 | 1006.0 |
| 20260510002629 | 14 | 353 | 4.8 | 6.4 | 0.00 | 0.51 | 0.51 | 82 | 1006.0 |
| 20260510002126 | 14 | 312 | 3.2 | 6.4 | 0.00 | 0.51 | 0.51 | 82 | 1005.7 |
| 20260510001623 | 14 | 342 | 6.4 | 8.0 | 0.00 | 0.51 | 0.51 | 83 | 1006.0 |
| 20260510001122 | 14 | 328 | 4.8 | 11.3 | 0.00 | 0.51 | 0.51 | 83 | 1006.0 |
| 20260510000622 | 14 | 340 | 3.2 | 9.7 | 0.00 | 0.51 | 0.51 | 84 | 1006.0 |
| 20260510000119 | 14 | 329 | 3.2 | 11.3 | 0.00 | 0.51 | 0.51 | 85 | 1005.9 |
| 20260509235615 | 14 | 314 | 1.6 | 9.7 | 0.00 | 0.51 | 0.51 | 86 | 1005.9 |
| 20260509235112 | 14 | 331 | 6.4 | 9.7 | 0.00 | 0.51 | 0.51 | 87 | 1006.0 |
| 20260509234608 | 13 | 348 | 1.6 | 9.7 | 0.00 | 0.51 | 0.51 | 88 | 1005.6 |
| 20260509234106 | 13 | 325 | 6.4 | 9.7 | 0.00 | 0.51 | 0.51 | 89 | 1005.7 |
| 20260509233604 | 13 | 2 | 8.0 | 14.5 | 0.00 | 0.51 | 0.51 | 90 | 1005.5 |
| 20260509233101 | 13 | 355 | 4.8 | 12.9 | 0.00 | 0.51 | 0.51 | 91 | 1005.5 |
| 20260509232557 | 13 | 27 | 4.8 | 9.7 | 0.00 | 0.51 | 0.51 | 91 | 1005.5 |
| 20260509232054 | 13 | 344 | 8.0 | 11.3 | 0.00 | 0.51 | 0.51 | 92 | 1005.5 |
| 20260509231550 | 13 | 353 | 3.2 | 9.7 | 0.00 | 0.51 | 0.51 | 92 | 1005.6 |
| 20260509231048 | 13 | 343 | 3.2 | 9.7 | 0.00 | 0.51 | 0.51 | 93 | 1005.4 |
| 20260509230544 | 13 | 358 | 4.8 | 9.7 | 0.18 | 0.51 | 0.51 | 93 | 1005.5 |
| 20260509230042 | 13 | 346 | 0.0 | 9.7 | 0.23 | 0.51 | 0.51 | 93 | 1005.5 |
| 20260509225537 | 13 | 294 | 6.4 | 17.7 | 0.05 | 0.48 | 0.48 | 92 | 1006.1 |
| 20260509225033 | 13 | 7 | 4.8 | 14.5 | 0.36 | 0.46 | 0.46 | 92 | 1006.2 |
| 20260509224529 | 13 | 329 | 11.3 | 22.5 | 0.84 | 0.46 | 0.46 | 93 | 1005.6 |
| 20260509224026 | 13 | 200 | 3.2 | 8.0 | 1.19 | 0.41 | 0.41 | 93 | 1005.6 |
| 20260509223523 | 13 | 149 | 6.4 | 9.7 | 1.75 | 0.30 | 0.30 | 91 | 1005.2 |
| 20260509223021 | 13 | 141 | 4.8 | 14.5 | 1.14 | 0.20 | 0.20 | 88 | 1005.1 |
| 20260509222516 | 17 | 43 | 4.8 | 16.1 | 0.00 | 0.00 | 0.00 | 74 | 1005.0 |
| 20260509222012 | 20 | 126 | 3.2 | 4.8 | 0.00 | 0.00 | 0.00 | 64 | 1004.5 |
| 20260509221508 | 20 | 346 | 6.4 | 12.9 | 0.00 | 0.00 | 0.00 | 62 | 1003.6 |
| 20260509221004 | 20 | 5 | 16.1 | 19.3 | 0.00 | 0.00 | 0.00 | 57 | 1003.2 |
| 20260509220500 | 20 | 354 | 8.0 | 19.3 | 0.00 | 0.00 | 0.00 | 58 | 1003.3 |
| 20260509215956 | 20 | 347 | 14.5 | 24.1 | 0.00 | 0.00 | 0.00 | 58 | 1003.3 |
| 20260509215452 | 20 | 22 | 11.3 | 16.1 | 0.00 | 0.00 | 0.00 | 59 | 1003.3 |
| 20260509214950 | 20 | 351 | 8.0 | 22.5 | 0.00 | 0.00 | 0.00 | 58 | 1003.2 |
| 20260509214447 | 20 | 353 | 9.7 | 19.3 | 0.00 | 0.00 | 0.00 | 56 | 1003.2 |
| 20260509213943 | 20 | 28 | 6.4 | 16.1 | 0.00 | 0.00 | 0.00 | 58 | 1003.1 |
| 20260509213439 | 20 | 353 | 19.3 | 29.0 | 0.00 | 0.00 | 0.00 | 56 | 1003.2 |
| 20260509212937 | 21 | 11 | 9.7 | 20.9 | 0.00 | 0.00 | 0.00 | 58 | 1003.3 |
| 20260509212434 | 21 | 15 | 11.3 | 25.7 | 0.00 | 0.00 | 0.00 | 56 | 1003.1 |
| 20260509211930 | 21 | 13 | 11.3 | 16.1 | 0.00 | 0.00 | 0.00 | 56 | 1003.0 |
| 20260509211426 | 21 | 47 | 14.5 | 25.7 | 0.00 | 0.00 | 0.00 | 56 | 1003.1 |
| 20260509210922 | 22 | 12 | 6.4 | 12.9 | 0.00 | 0.00 | 0.00 | 56 | 1003.1 |
| 20260509210421 | 22 | 7 | 11.3 | 16.1 | 0.00 | 0.00 | 0.00 | 54 | 1003.1 |
| 20260509205921 | 21 | 13 | 16.1 | 20.9 | 0.00 | 0.00 | 0.00 | 55 | 1003.2 |